This is the latest recevied weather packets stored in our database for station/object KD0SBN. If no packets are shown the sender has not sent any weather packets the latest 10 day(s).
| Time | Temp. | Humidity | Pressure | Rain* | Wind** | Luminosity | Snow |
|---|---|---|---|---|---|---|---|
| 1777796730 | 8.33° C | 54% | 1017.2 hPa | 0 mm | - | - | - |
| 1777796427 | 8.89° C | 54% | 1017.2 hPa | 0 mm | - | - | - |
| 1777796121 | 9.44° C | 51% | 1017.2 hPa | 0 mm | - | - | - |
| 1777795819 | 9.44° C | 50% | 1017.3 hPa | 0 mm | - | - | - |
| 1777795514 | 9.44° C | 48% | 1017.3 hPa | 0 mm | - | - | - |
| 1777795212 | 9.44° C | 49% | 1017.1 hPa | 0 mm | - | - | - |
| 1777794908 | 9.44° C | 50% | 1017.3 hPa | 0 mm | - | - | - |
| 1777794605 | 9.44° C | 52% | 1017.5 hPa | 0 mm | - | - | - |
| 1777794300 | 9.44° C | 49% | 1017.6 hPa | 0 mm | - | - | - |
| 1777793996 | 9.44° C | 50% | 1017.6 hPa | 0 mm | - | - | - |
| 1777793693 | 9.44° C | 47% | 1017.7 hPa | 0 mm | - | - | - |
| 1777793391 | 8.89° C | 52% | 1017.5 hPa | 0 mm | - | - | - |
| 1777793088 | 10° C | 46% | 1017.7 hPa | 0 mm | - | - | - |
| 1777792785 | 10° C | 47% | 1017.7 hPa | 0 mm | - | - | - |
| 1777792482 | 10.56° C | 46% | 1017.5 hPa | 0 mm | - | - | - |
| 1777792178 | 10.56° C | 43% | 1017.6 hPa | 0 mm | - | - | - |
| 1777791875 | 11.11° C | 41% | 1017.7 hPa | 0 mm | - | - | - |
| 1777791574 | 11.11° C | 40% | 1017.7 hPa | 0 mm | - | - | - |
| 1777791272 | 11.11° C | 42% | 1017.6 hPa | 0 mm | - | - | - |
| 1777790969 | 11.11° C | 41% | 1017.8 hPa | 0 mm | - | - | - |
| 1777790666 | 11.11° C | 42% | 1017.7 hPa | 0 mm | - | - | - |
| 1777790362 | 11.11° C | 42% | 1017.8 hPa | 0 mm | - | - | - |
| 1777790060 | 11.67° C | 42% | 1017.8 hPa | 0 mm | - | - | - |
| 1777789758 | 11.67° C | 42% | 1017.7 hPa | 0 mm | - | - | - |
| 1777789457 | 11.67° C | 40% | 1018 hPa | 0 mm | - | - | - |
* Rain latest hour (hover to see other rain measurements)
** Current wind speed in m/s (hover to see current wind gust speed)